Regional Weather Roundup
Issued by NWS Northern Indiana

Home | Current Version | Previous Version | Graphics & Text | Print | Product List | Glossary On
Versions: 1 2 3 4 5 6 7 8 9 10 11 12 13 14 15 16 17 18 19 20 21 22 23 24 25 26 27 28 29 30 31 32 33 34 35 36 37 38 39 40 41 42 43 44 45 46 47 48 49 50
874
ASUS43 KIWX 161310
RWRIWX

KIWX WEATHER ROUNDUP
NATIONAL WEATHER SERVICE NORTHERN INDIANA
900 AM EDT WED AUG 16 2017

NOTE: "FAIR" INDICATES FEW OR NO CLOUDS BELOW 12,000 FEET WITH NO
SIGNIFICANT WEATHER AND/OR OBSTRUCTIONS TO VISIBILITY.

* THESE STATIONS ARE NOT UNDER NWS QUALITY CONTROL. THEY ALSO MAY NOT
  REPORT WEATHER SUCH AS PRECIPITATION OR FOG.

INZ001>027-161400-
NORTHERN INDIANA

CITY           SKY/WX    TMP DP  RH WIND       PRES   REMARKS
GARY*          MOSUNNY   73  64  73 CALM      30.02S
VALPARAISO     SUNNY     70  66  87 E3        30.03R
MICHIGAN CITY* MOSUNNY   68  68 100 CALM      30.03S
LAPORTE*       SUNNY     68  65  88 SE3       30.04S
KNOX*          SUNNY     66  64  94 CALM      30.03R
SOUTH BEND     MOSUNNY   68  66  93 E5        30.04R
ELKHART*       SUNNY     70  64  83 CALM      30.05R
GOSHEN         SUNNY     70  64  81 E6        30.04S HAZE
MONTICELLO*    SUNNY     71  68  91 CALM      30.01R
LOGANSPORT*    SUNNY     70  68  94 E3        30.04R
ROCHESTER*     MOSUNNY   70  68  94 CALM      30.05R FOG
WARSAW*        MOSUNNY   68  66  94 CALM      30.05R
AUBURN*        SUNNY     70  64  83 E5        30.06R HAZE
FORT WAYNE     MOSUNNY   70  65  84 E5        30.05R
HUNTINGTON*    MOSUNNY   70  68  95 CALM      30.04S
PERU/GRISSOM   SUNNY     73  71  92 SE3       30.02R
MARION*        SUNNY     72  68  88 CALM      30.05R

$$
INZ028>050-161400-
CENTRAL INDIANA

CITY           SKY/WX    TMP DP  RH WIND       PRES   REMARKS
LAFAYETTE      SUNNY     72  70  93 CALM      30.01R
KOKOMO*        SUNNY     72  69  90 CALM      30.05R
MUNCIE*        SUNNY     76  69  79 VRB3      30.04R
INDIANAPOLIS   MOSUNNY   76  69  79 CALM      30.02R

$$
MIZ043>046-050>051-056>058-064>065-071>073-077>080-161400-
SOUTHWEST LOWER MICHIGAN

CITY           SKY/WX    TMP DP  RH WIND       PRES   REMARKS
BATTLE CREEK   SUNNY     70  65  84 SE7       30.07R
BENTON HARBOR    N/A     70  64  81 VRB3      30.03S
COLDWATER*     SUNNY     70  67  89 SE8       30.07R
HILLSDALE*     CLOUDY    70  64  83 SE10      30.08R
HOLLAND        MOSUNNY   67  62  84 E6        30.05R
GRAND RAPIDS   MOSUNNY   68  64  87 SE8       30.05S
KALAMAZOO      MOSUNNY   71  63  75 E3        30.06R HAZE
STURGIS*       SUNNY     70  65  86 SE8       30.05R
THREE RIVERS*  FAIR      70  65  85 CALM      30.06R

$$
OHZ001>008-015>018-024>025-161400-
NORTHWEST OHIO

CITY           SKY/WX    TMP DP  RH WIND       PRES   REMARKS
WAUSEON*       FAIR      70  68  94 VRB5      30.07R FOG
DEFIANCE       MOSUNNY   69  64  84 E10       30.06R
FINDLAY        MOSUNNY   72  63  73 E8        30.06R
TOLEDO EXPRESS SUNNY     71  68  90 E6        30.07R
TOLEDO METCALF SUNNY     72  68  87 E7        30.08R
LIMA           SUNNY     72  68  87 E5        30.05S

$$
AND FOR LAKE MICHIGAN COASTAL AND OPEN LAKE BUOY OBSERVATIONS

STATION/POSITION TEMP    WIND        PRES    VSBY  WAVE
                 AIR SEA DIR/SP/G                  HT/PER
                 (F)     (DEG/KT/KT) (MB)    (MI)  (FT/S)
CALUMET HARBOR    73      60/  5/  8 1015.8S
MICHIGAN CITY     68      50/  4/  4   N/A
BURNS HARBOR      71      80/  5/  8 1016.9R
SAINT JOSEPH      70     140/  1/  2 1017.6R
SOUTH LAKE BUOY   70 71   70/  4/  4 1016.8R         1/ 4
4 MI NW BRIDGMAN  69 73  150/  6/  8 1016.7          1/ 4
MICHIGAN CITY     71 74  100/  6/  8   N/A           2/ 4

$$
&&




USA.gov is the U.S. government's official web portal to all federal, state and local government web resources and services.